[[{"header":{"parameterUnit":"m.s-1","parameterCategory":2,"la1":30.2991,"la2":30.254,"lo1":-89.0895,"lo2":-89.0444,"dx":0.0017,"dy":0.0017,"nx":28,"ny":28,"refTime":"2022-11-07T03:00:00:Z","depth":"0","parameterNumber":2,"parameterNumberName":"U-component_of_CURRENTS"},"data":[0,0,0,0,0,0,0,0,0,0,0,0,0,0,0,0,0,0,0,0,0,0,0,0,0,0,0,0,0,0,0,0,0,0,0,0,0,0,0,0,0,0,0,0,0,0,0,0,0,0,0,0,0,0,0,0,0,0,-0.2144,-0.2144,0,-0.2124,-0.2124,-0.2123,-0.2063,-0.2062,-0.2061,-0.206,-0.1968,-0.1966,-0.1965,0,0,0,0,0,0,0,0,0,0,0,0,0,-0.2105,-0.2105,-0.2144,-0.2144,-0.2144,-0.2125,-0.2124,-0.2123,-0.2063,-0.2062,-0.2061,-0.206,-0.1969,-0.1967,-0.1965,0,0,0,0,0,0,0,0,0,0,0,0,0,-0.2102,-0.2106,-0.2144,-0.2116,-0.2113,-0.2125,-0.2124,-0.2123,-0.2063,-0.2062,-0.2061,-0.206,-0.1969,-0.1967,-0.1964,-0.1976,0,0,-0.1957,-0.1956,0,0,0,0,0,0,0,0,-0.2103,-0.2103,-0.212,-0.2118,-0.2115,-0.2099,-0.2076,-0.2072,-0.2064,-0.2077,-0.206,-0.2059,-0.2009,-0.2003,-0.1997,-0.1971,-0.1967,-0.1957,-0.1955,-0.1954,-0.1953,0,0,0,0,0,0,0,-0.2103,-0.2104,-0.2131,-0.212,-0.2117,-0.2096,-0.2094,-0.2075,-0.2046,-0.2076,-0.2073,-0.2079,-0.2007,-0.1999,-0.1994,-0.1966,-0.1957,-0.1955,-0.1953,-0.1952,-0.1946,-0.1947,0,0,0,0,0,0,-0.2118,-0.2104,-0.2132,-0.2131,-0.2111,-0.2098,-0.2096,-0.2102,-0.2047,-0.204,-0.208,-0.2076,-0.2004,-0.1997,-0.1991,-0.2028,-0.1954,-0.1952,-0.195,-0.1945,-0.1947,-0.1948,0,0,0,0,0,0,-0.2117,-0.2121,-0.2133,-0.2121,-0.2121,-0.2101,-0.2108,-0.2102,-0.2094,-0.2052,-0.2042,-0.2078,-0.2003,-0.1994,-0.1982,-0.2023,-0.1951,-0.1949,-0.1943,-0.1945,-0.1947,-0.2085,0,0,0,0,0,0,-0.2116,-0.2121,-0.2126,-0.2122,-0.2123,-0.2153,-0.2109,-0.2103,-0.2102,-0.2096,-0.2047,-0.2037,-0.2001,-0.1986,-0.198,-0.2018,-0.1947,-0.1942,-0.1944,-0.1947,-0.2079,-0.2092,-0.2103,0,0,0,0,0,-0.2115,-0.2139,-0.2126,-0.213,-0.2132,-0.2155,-0.2154,-0.213,-0.2103,-0.2114,-0.2077,-0.2039,-0.1997,-0.1986,-0.1977,-0.2016,-0.1941,-0.1944,-0.1946,-0.2074,-0.2089,-0.2102,0,0,0,0,0,0,-0.2119,-0.2136,-0.2121,-0.2146,-0.2154,-0.2147,-0.216,-0.2139,-0.2119,-0.2109,-0.2055,-0.2044,-0.2049,-0.2011,-0.2,-0.202,-0.1963,-0.1964,-0.2062,-0.2076,-0.2088,-0.2091,-0.1945,0,0,0,0,0,-0.2126,-0.2153,-0.2156,-0.2178,-0.2186,-0.2171,-0.2174,-0.2162,-0.2148,-0.2137,-0.2102,-0.2069,-0.2058,-0.2049,-0.2025,-0.2038,-0.2013,-0.2056,-0.2068,-0.2078,-0.2074,-0.2089,-0.2103,-0.1958,-0.1958,-0.1958,0,0,-0.2134,-0.2149,-0.2161,-0.2182,-0.2184,-0.2209,-0.2169,-0.2189,-0.2203,-0.2132,-0.2135,-0.2107,-0.2068,-0.2084,-0.2083,-0.2057,-0.2108,-0.2082,-0.2092,-0.2081,-0.2094,-0.2108,-0.2121,-0.196,-0.1959,-0.1959,0,0,-0.2182,-0.2178,-0.222,-0.2231,-0.225,-0.2245,-0.2254,-0.225,-0.2242,-0.2248,-0.2205,-0.2201,-0.2171,-0.2163,-0.2152,-0.2213,-0.2169,-0.2206,-0.2273,-0.229,-0.2302,-0.2312,-0.2313,-0.2322,-0.2216,-0.2216,-0.2216,0,-0.2188,-0.2239,-0.2235,-0.2275,-0.2291,-0.2265,-0.2305,-0.23,-0.229,-0.2298,-0.2263,-0.2248,-0.2212,-0.2246,-0.2262,-0.2243,-0.2235,-0.2229,-0.2308,-0.2317,-0.2325,-0.2323,-0.2331,-0.2223,-0.2222,-0.2222,-0.2221,0,-0.2267,-0.23,-0.2329,-0.2368,-0.2381,-0.2418,-0.2412,-0.2421,-0.2403,-0.2396,-0.2417,-0.2378,-0.2363,-0.2367,-0.2328,-0.238,-0.2351,-0.2323,-0.2278,-0.2349,-0.2341,-0.2347,-0.2233,-0.2231,-0.2229,-0.2227,0,0,-0.2298,-0.2372,-0.238,-0.2414,-0.2434,-0.2459,-0.2488,-0.2518,-0.2544,-0.2529,-0.2566,-0.2549,-0.2517,-0.2501,-0.2468,-0.2483,-0.2536,-0.2431,-0.2429,-0.2442,-0.2567,-0.2411,-0.2403,-0.253,-0.2531,-0.2533,-0.2544,0,-0.236,-0.2462,-0.2473,-0.2548,-0.2595,-0.2581,-0.2612,-0.2627,-0.2625,-0.2651,-0.263,-0.2636,-0.2573,-0.2568,-0.2579,-0.2538,-0.2556,-0.2534,-0.2485,-0.2483,-0.2345,-0.2406,-0.2251,-0.2235,-0.2549,-0.255,-0.2551,0,-0.2428,-0.2492,-0.258,-0.2651,-0.2668,-0.2694,-0.274,-0.2762,-0.2783,-0.2781,-0.2786,-0.2752,-0.2756,-0.2692,-0.2675,-0.2665,-0.2623,-0.2597,-0.2596,-0.24,-0.2338,-0.221,-0.2234,-0.2213,-0.256,-0.2559,-0.2559,0,-0.2458,-0.2562,-0.2637,-0.2658,-0.2726,-0.2752,-0.2777,-0.2801,-0.2814,-0.2849,-0.2845,-0.2864,-0.2818,-0.2815,-0.2713,-0.2708,-0.269,-0.2676,-0.2508,-0.2497,-0.2324,-0.2293,-0.2322,-0.2682,-0.2682,-0.2682,-0.2682,0,-0.2515,-0.2569,-0.2658,-0.2691,-0.2763,-0.2793,-0.2845,-0.2867,-0.2894,-0.2893,-0.2894,-0.2866,-0.2839,-0.2801,-0.2764,-0.263,-0.2723,-0.252,-0.249,-0.2365,-0.2339,-0.2275,-0.2309,-0.2682,-0.2682,-0.2682,-0.2682,0,-0.25,-0.2575,-0.2642,-0.2734,-0.2768,-0.2795,-0.2849,-0.2874,-0.2902,-0.2895,-0.2894,-0.2856,-0.2786,-0.2761,-0.2721,-0.2628,-0.2514,-0.2511,-0.2349,-0.2297,-0.2089,-0.2135,-0.2108,-0.2057,-0.2339,-0.2336,-0.2332,0,-0.2499,-0.2539,-0.2636,-0.2647,-0.2674,-0.2737,-0.2768,-0.2852,-0.2861,-0.2855,-0.2834,-0.2774,-0.267,-0.2559,-0.2436,-0.2357,-0.2378,-0.2148,-0.2096,-0.2054,-0.2087,-0.2128,-0.2092,-0.1944,-0.1938,-0.1933,-0.1929,0,-0.2445,-0.2465,-0.2487,-0.254,-0.2578,-0.2635,-0.2685,-0.2705,-0.2763,-0.2738,-0.2647,-0.2573,-0.2438,-0.2222,-0.2103,-0.2047,-0.2076,-0.2036,-0.2052,-0.1821,-0.181,-0.1751,-0.1969,-0.1884,-0.1889,-0.1892,-0.1894,-0.1896,-0.233,-0.2318,-0.234,-0.2357,-0.2423,-0.2455,-0.2412,-0.247,-0.2446,-0.2306,-0.2392,-0.2169,-0.2034,-0.1811,-0.1765,-0.1605,-0.1732,-0.1528,-0.1605,-0.1663,-0.1558,-0.1652,-0.1486,-0.1488,-0.149,-0.1492,-0.1493,0,-0.2152,-0.215,-0.2161,-0.2177,-0.2174,-0.2267,-0.2283,-0.2167,-0.2052,-0.1964,-0.1838,-0.1635,-0.146,-0.1406,-0.1276,-0.1193,-0.121,-0.1199,-0.1261,-0.1257,-0.1375,-0.1296,-0.1006,-0.1006,-0.1006,-0.1007,-0.1007,-0.1007,-0.2051,-0.1969,-0.1977,-0.1902,-0.1916,-0.1806,-0.1746,-0.1611,-0.1485,-0.121,-0.1052,-0.0977,-0.1093,-0.119,-0.1108,-0.1049,-0.1083,-0.1019,-0.1124,-0.1242,-0.1281,-0.1318,-0.1252,-0.0957,-0.0957,-0.0917,-0.0917,-0.0917]},{"header":{"parameterUnit":"m.s-1","parameterCategory":2,"la1":30.2991,"la2":30.254,"lo1":-89.0895,"lo2":-89.0444,"dx":0.0017,"dy":0.0017,"nx":28,"ny":28,"refTime":"2022-11-07T03:00:00:Z","depth":"0","parameterNumber":3,"parameterNumberName":"V-component_of_CURRENTS"},"data":[0,0,0,0,0,0,0,0,0,0,0,0,0,0,0,0,0,0,0,0,0,0,0,0,0,0,0,0,0,0,0,0,0,0,0,0,0,0,0,0,0,0,0,0,0,0,0,0,0,0,0,0,0,0,0,0,0,0,0.0317,0.0318,0,0.0354,0.0354,0.0355,0.0389,0.039,0.039,0.039,0.0452,0.0453,0.0454,0,0,0,0,0,0,0,0,0,0,0,0,0,0.0263,0.0264,0.0317,0.0318,0.0318,0.0354,0.0354,0.0355,0.0389,0.039,0.039,0.0391,0.0451,0.0453,0.0454,0,0,0,0,0,0,0,0,0,0,0,0,0,0.0292,0.0264,0.0317,0.0339,0.0342,0.0354,0.0354,0.0355,0.0389,0.039,0.039,0.0391,0.0451,0.0452,0.0454,0.0453,0,0,0.046,0.0461,0,0,0,0,0,0,0,0,0.029,0.0294,0.0336,0.0338,0.0341,0.0368,0.0358,0.0389,0.0389,0.0371,0.039,0.0391,0.0425,0.0429,0.0434,0.0456,0.0458,0.046,0.0461,0.0462,0.0462,0,0,0,0,0,0,0,0.0288,0.0292,0.0332,0.0336,0.0339,0.0343,0.0348,0.0364,0.0394,0.0373,0.0375,0.0379,0.0427,0.0432,0.0436,0.0459,0.046,0.0462,0.0463,0.0463,0.0498,0.0498,0,0,0,0,0,0,0.0284,0.0291,0.033,0.0333,0.0317,0.0344,0.0349,0.0358,0.0394,0.04,0.0379,0.0381,0.0429,0.0434,0.0438,0.0451,0.0462,0.0464,0.0465,0.0498,0.0498,0.0498,0,0,0,0,0,0,0.0283,0.0287,0.0329,0.0312,0.0318,0.0344,0.0354,0.0359,0.0365,0.0398,0.0405,0.038,0.043,0.0436,0.0446,0.0453,0.0465,0.0466,0.0499,0.0498,0.0498,0.0469,0,0,0,0,0,0,0.0281,0.0287,0.0288,0.0312,0.0319,0.0329,0.0353,0.0359,0.0366,0.0369,0.0401,0.0408,0.0431,0.0443,0.0448,0.0456,0.0468,0.0499,0.0498,0.0498,0.047,0.0468,0.0465,0,0,0,0,0,0.0279,0.0275,0.0288,0.0293,0.0321,0.0328,0.0331,0.0352,0.0366,0.0362,0.0384,0.0407,0.0445,0.0444,0.045,0.0459,0.0499,0.0499,0.0498,0.0471,0.0468,0.0466,0,0,0,0,0,0,0.0248,0.0279,0.0294,0.0299,0.031,0.0334,0.0331,0.0347,0.0361,0.0366,0.0399,0.0406,0.042,0.0438,0.0436,0.0467,0.0478,0.0479,0.0456,0.0453,0.0451,0.0446,0.0469,0,0,0,0,0,0.0243,0.0252,0.0276,0.028,0.0283,0.0307,0.0312,0.0327,0.0344,0.0351,0.0373,0.0399,0.0422,0.0435,0.0453,0.0466,0.0471,0.0477,0.0474,0.0472,0.0472,0.0491,0.049,0.0497,0.0497,0.0497,0,0,0.0231,0.025,0.0254,0.0274,0.0285,0.028,0.0311,0.0315,0.0317,0.0355,0.036,0.0387,0.0421,0.0437,0.0446,0.0455,0.0467,0.0472,0.047,0.047,0.0491,0.049,0.049,0.0496,0.0496,0.0496,0,0,0.0203,0.0228,0.022,0.0229,0.0245,0.0259,0.0258,0.0279,0.0294,0.0301,0.0335,0.0366,0.0386,0.0424,0.0444,0.044,0.0451,0.0443,0.0433,0.0452,0.0452,0.0452,0.0428,0.0426,0.0447,0.0447,0.0447,0,0.0181,0.0185,0.0216,0.0208,0.0212,0.0246,0.0232,0.0249,0.0272,0.0288,0.0296,0.035,0.0385,0.0423,0.0427,0.0437,0.0428,0.0441,0.0449,0.0449,0.045,0.0426,0.0424,0.0445,0.0445,0.0446,0.0446,0,0.0147,0.0149,0.0142,0.0149,0.0156,0.0151,0.0179,0.0191,0.0214,0.0238,0.0273,0.032,0.0356,0.0378,0.0403,0.043,0.0413,0.0439,0.0455,0.0447,0.0422,0.0421,0.0443,0.0444,0.0444,0.0444,0,0,0.0085,0.0113,0.0107,0.0106,0.0128,0.0126,0.0138,0.016,0.0165,0.0205,0.0215,0.0285,0.0317,0.0342,0.0385,0.0415,0.0412,0.0424,0.0426,0.0398,0.0411,0.0483,0.0488,0.0434,0.0434,0.0435,0.0381,0,0.0041,0.0022,0.0051,0.0028,0.0018,0.0063,0.0066,0.0097,0.0128,0.0142,0.0219,0.0239,0.0301,0.0314,0.0357,0.0394,0.0411,0.0421,0.0426,0.0425,0.0489,0.0491,0.0537,0.0502,0.038,0.038,0.038,0,-0.0017,-0.0015,-0.0037,-0.0023,-0.0025,-0.003,-0.0009,0.0001,0.005,0.0074,0.0126,0.0169,0.0226,0.0272,0.0339,0.0335,0.0369,0.0402,0.0401,0.0482,0.0497,0.0497,0.0504,0.0627,0.0378,0.0378,0.0378,0,-0.0083,-0.0084,-0.0098,-0.0095,-0.0074,-0.0071,-0.006,-0.0019,-0.0018,0.0028,0.0019,0.0104,0.0115,0.0194,0.0275,0.0296,0.0326,0.0364,0.0456,0.0458,0.0509,0.0517,0.0641,0.0406,0.0407,0.0407,0.0407,0,-0.0145,-0.0164,-0.013,-0.0142,-0.017,-0.0126,-0.0148,-0.0122,-0.0097,-0.0117,-0.0025,-0.0036,0.0094,0.0135,0.0229,0.0333,0.029,0.0452,0.0464,0.0497,0.0505,0.0625,0.0672,0.0405,0.0405,0.0406,0.0406,0,-0.0226,-0.0199,-0.0227,-0.0207,-0.0204,-0.0229,-0.0223,-0.0242,-0.0202,-0.0232,-0.0227,-0.0164,-0.0087,0.004,0.0145,0.0258,0.0444,0.0404,0.0418,0.0437,0.0692,0.0733,0.0839,0.0915,0.051,0.0512,0.0513,0,-0.0267,-0.0282,-0.029,-0.0321,-0.0318,-0.0334,-0.0354,-0.0307,-0.0327,-0.0316,-0.035,-0.028,-0.0219,-0.0029,0.0197,0.0384,0.0478,0.0517,0.0609,0.0721,0.0774,0.0794,0.0852,0.063,0.0632,0.0634,0.0636,0,-0.0349,-0.035,-0.0377,-0.0433,-0.0465,-0.0491,-0.0507,-0.0522,-0.0483,-0.0474,-0.0471,-0.0415,-0.0216,0.0048,0.0317,0.0432,0.0639,0.0565,0.0682,0.0892,0.0918,0.0991,0.0612,0.0652,0.0651,0.0649,0.0648,0.0648,-0.0422,-0.047,-0.05,-0.0558,-0.0594,-0.0621,-0.0589,-0.0581,-0.0561,-0.0422,-0.0483,-0.0244,-0.0041,0.0385,0.0507,0.0831,0.0797,0.0941,0.0975,0.0979,0.1101,0.0756,0.0827,0.0826,0.0826,0.0825,0.0825,0,-0.0511,-0.0553,-0.0619,-0.0662,-0.0693,-0.068,-0.0666,-0.0557,-0.0457,-0.0288,-0.0168,0.0172,0.0463,0.0719,0.1064,0.1225,0.1257,0.129,0.1326,0.1363,0.1058,0.1117,0.1255,0.1255,0.1254,0.1254,0.1254,0.1254,-0.0566,-0.0648,-0.0673,-0.0728,-0.0731,-0.066,-0.0605,-0.0417,-0.0216,0.0177,0.0509,0.0685,0.0853,0.1226,0.1519,0.1544,0.1673,0.1661,0.1725,0.1518,0.1488,0.1459,0.1529,0.175,0.1751,0.2028,0.2031,0.2033]}],[{"header":{"parameterUnit":"m.s-1","parameterCategory":2,"la1":30.2991,"la2":30.254,"lo1":-89.0895,"lo2":-89.0444,"dx":0.0017,"dy":0.0017,"nx":28,"ny":28,"refTime":"2022-11-07T03:00:00:Z","depth":"2","parameterNumber":2,"parameterNumberName":"U-component_of_CURRENTS"},"data":[0,0,0,0,0,0,0,0,0,0,0,0,0,0,0,0,0,0,0,0,0,0,0,0,0,0,0,0,0,0,0,0,0,0,0,0,0,0,0,0,0,0,0,0,0,0,0,0,0,0,0,0,0,0,0,0,0,0,-0.1607,-0.1607,0,-0.1616,-0.1616,-0.1616,-0.1609,-0.1609,-0.1608,-0.1608,-0.1647,-0.1648,-0.1649,0,0,0,0,0,0,0,0,0,0,0,0,0,-0.1676,-0.1674,-0.1607,-0.1607,-0.1608,-0.1616,-0.1616,-0.1616,-0.1609,-0.1609,-0.1608,-0.1608,-0.1646,-0.1648,-0.1649,0,0,0,0,0,0,0,0,0,0,0,0,0,-0.1661,-0.1674,-0.1607,-0.1606,-0.1605,-0.1616,-0.1616,-0.1616,-0.1609,-0.1609,-0.1608,-0.1608,-0.1646,-0.1648,-0.165,-0.1669,0,0,-0.1655,-0.1656,0,0,0,0,0,0,0,0,-0.1662,-0.1658,-0.1606,-0.1606,-0.1606,-0.1612,-0.1655,-0.1635,-0.1609,-0.1607,-0.1608,-0.1608,-0.1639,-0.1641,-0.1642,-0.167,-0.1672,-0.1656,-0.1657,-0.1657,-0.1658,0,0,0,0,0,0,0,-0.1663,-0.1658,-0.161,-0.1606,-0.1606,-0.1636,-0.1632,-0.1651,-0.1625,-0.1607,-0.1607,-0.1609,-0.1639,-0.164,-0.1643,-0.1673,-0.1655,-0.1657,-0.1658,-0.1659,-0.1702,-0.1702,0,0,0,0,0,0,-0.1658,-0.1659,-0.161,-0.161,-0.1634,-0.1635,-0.1631,-0.161,-0.1624,-0.1626,-0.1609,-0.1609,-0.1637,-0.1641,-0.1644,-0.1665,-0.1657,-0.1659,-0.166,-0.1702,-0.1702,-0.1702,0,0,0,0,0,0,-0.1659,-0.1652,-0.1609,-0.1637,-0.1634,-0.1633,-0.161,-0.161,-0.1615,-0.1625,-0.1627,-0.1614,-0.1637,-0.1642,-0.1656,-0.1667,-0.166,-0.1662,-0.1702,-0.1702,-0.1702,-0.1709,0,0,0,0,0,0,-0.166,-0.1652,-0.164,-0.1636,-0.1632,-0.1613,-0.161,-0.161,-0.1617,-0.1616,-0.1631,-0.1633,-0.1637,-0.1653,-0.1658,-0.1669,-0.1663,-0.1702,-0.1702,-0.1702,-0.1709,-0.1709,-0.1709,0,0,0,0,0,-0.1662,-0.1635,-0.1639,-0.1634,-0.1612,-0.1613,-0.1613,-0.1613,-0.1617,-0.1617,-0.1625,-0.1633,-0.1656,-0.1655,-0.166,-0.1673,-0.1702,-0.1702,-0.1702,-0.1708,-0.1709,-0.1709,0,0,0,0,0,0,-0.1643,-0.1632,-0.1636,-0.1602,-0.1611,-0.1611,-0.1611,-0.1618,-0.1624,-0.1627,-0.1636,-0.164,-0.1653,-0.1662,-0.1659,-0.1683,-0.168,-0.1681,-0.1683,-0.1683,-0.1684,-0.1692,-0.1665,0,0,0,0,0,-0.1639,-0.1621,-0.1622,-0.1598,-0.1604,-0.1614,-0.1617,-0.162,-0.1625,-0.1627,-0.1639,-0.165,-0.1658,-0.1669,-0.1676,-0.1697,-0.1721,-0.1707,-0.1707,-0.1707,-0.1717,-0.174,-0.1744,-0.1702,-0.1702,-0.1702,0,0,-0.1619,-0.1617,-0.1601,-0.1595,-0.1603,-0.1618,-0.1614,-0.1617,-0.1631,-0.1632,-0.1652,-0.1653,-0.1662,-0.1675,-0.1683,-0.1686,-0.1737,-0.1707,-0.1708,-0.1717,-0.1741,-0.1745,-0.1749,-0.1702,-0.1702,-0.1702,0,0,-0.1599,-0.1578,-0.1575,-0.1589,-0.1608,-0.1616,-0.162,-0.1632,-0.1636,-0.1656,-0.1654,-0.1657,-0.1684,-0.1683,-0.1688,-0.1698,-0.1733,-0.1706,-0.1724,-0.1747,-0.1751,-0.1755,-0.1815,-0.1823,-0.1712,-0.1712,-0.1712,0,-0.1584,-0.1578,-0.1575,-0.1595,-0.1609,-0.1619,-0.1636,-0.1643,-0.1657,-0.1667,-0.1663,-0.1689,-0.1686,-0.1704,-0.17,-0.17,-0.1736,-0.1722,-0.1749,-0.1753,-0.1756,-0.1817,-0.1826,-0.1713,-0.1713,-0.1713,-0.1713,0,-0.1583,-0.1584,-0.1585,-0.1614,-0.1627,-0.1636,-0.1657,-0.167,-0.1681,-0.1692,-0.171,-0.1705,-0.1719,-0.1717,-0.1713,-0.1737,-0.1765,-0.1743,-0.175,-0.1761,-0.1824,-0.1834,-0.1713,-0.1713,-0.1713,-0.1713,0,0,-0.1544,-0.1575,-0.1581,-0.1593,-0.1639,-0.1636,-0.1674,-0.1699,-0.1701,-0.1731,-0.1747,-0.1752,-0.175,-0.1755,-0.1749,-0.1766,-0.1817,-0.1772,-0.1773,-0.1837,-0.191,-0.1733,-0.1728,-0.1807,-0.1808,-0.1809,-0.1953,0,-0.1553,-0.1556,-0.16,-0.162,-0.1618,-0.1664,-0.1683,-0.1708,-0.1722,-0.1736,-0.1758,-0.1759,-0.1766,-0.1758,-0.1785,-0.1802,-0.1841,-0.1782,-0.1885,-0.1888,-0.1733,-0.1731,-0.1588,-0.1685,-0.1963,-0.1964,-0.1966,0,-0.1565,-0.1553,-0.1557,-0.1588,-0.1598,-0.163,-0.1652,-0.1672,-0.171,-0.1722,-0.176,-0.1771,-0.1818,-0.1795,-0.1888,-0.1858,-0.189,-0.1909,-0.1914,-0.1751,-0.1727,-0.1713,-0.1693,-0.1983,-0.1981,-0.198,-0.1979,0,-0.1505,-0.1542,-0.1529,-0.1541,-0.1572,-0.1604,-0.1633,-0.1665,-0.1678,-0.1712,-0.1731,-0.179,-0.1821,-0.1877,-0.1931,-0.1918,-0.2028,-0.2009,-0.1897,-0.1889,-0.1784,-0.176,-0.2068,-0.2068,-0.2067,-0.2067,-0.2067,0,-0.1482,-0.1501,-0.1497,-0.1486,-0.1483,-0.1538,-0.1551,-0.1586,-0.1635,-0.1652,-0.1714,-0.1738,-0.184,-0.1914,-0.1958,-0.1961,-0.2061,-0.1902,-0.1897,-0.178,-0.1756,-0.2018,-0.201,-0.2072,-0.2071,-0.207,-0.2069,0,-0.1434,-0.145,-0.1442,-0.1447,-0.1454,-0.1451,-0.1519,-0.1528,-0.1578,-0.1611,-0.1633,-0.1736,-0.1798,-0.1893,-0.1985,-0.197,-0.1995,-0.1973,-0.184,-0.181,-0.185,-0.1842,-0.1865,-0.186,-0.1855,-0.1851,-0.1848,0,-0.1394,-0.137,-0.1363,-0.1379,-0.1403,-0.1408,-0.1423,-0.1483,-0.1509,-0.1595,-0.1621,-0.1696,-0.1714,-0.1793,-0.1772,-0.1809,-0.1903,-0.1684,-0.1577,-0.1828,-0.1823,-0.1821,-0.1819,-0.1494,-0.1488,-0.1483,-0.1479,0,-0.1309,-0.1329,-0.1313,-0.1299,-0.1334,-0.1343,-0.1384,-0.1395,-0.147,-0.1494,-0.1546,-0.1562,-0.1588,-0.1516,-0.1521,-0.1523,-0.1651,-0.1575,-0.1906,-0.151,-0.1472,-0.1468,-0.148,-0.1437,-0.1441,-0.1444,-0.1446,-0.1448,-0.1241,-0.1233,-0.1217,-0.1232,-0.1269,-0.1294,-0.1267,-0.1333,-0.1342,-0.1381,-0.1434,-0.1404,-0.1397,-0.1277,-0.1241,-0.1212,-0.1314,-0.1286,-0.1306,-0.1329,-0.1202,-0.1151,-0.1038,-0.104,-0.1041,-0.1043,-0.1044,0,-0.1116,-0.1158,-0.1158,-0.1168,-0.1176,-0.1218,-0.124,-0.1201,-0.1184,-0.1247,-0.1245,-0.1099,-0.1022,-0.1032,-0.0891,-0.0845,-0.0894,-0.0827,-0.0905,-0.0946,-0.0982,-0.0842,-0.0582,-0.058,-0.0579,-0.0578,0,0,-0.1071,-0.1058,-0.1077,-0.1063,-0.1075,-0.1019,-0.1007,-0.0988,-0.0989,-0.0973,-0.0951,-0.1016,-0.0991,-0.0795,-0.0734,-0.0635,-0.0797,-0.0605,-0.0974,-0.1107,-0.1143,-0.1236,-0.1061,0,0,0,0,0]},{"header":{"parameterUnit":"m.s-1","parameterCategory":2,"la1":30.2991,"la2":30.254,"lo1":-89.0895,"lo2":-89.0444,"dx":0.0017,"dy":0.0017,"nx":28,"ny":28,"refTime":"2022-11-07T03:00:00:Z","depth":"2","parameterNumber":3,"parameterNumberName":"V-component_of_CURRENTS"},"data":[0,0,0,0,0,0,0,0,0,0,0,0,0,0,0,0,0,0,0,0,0,0,0,0,0,0,0,0,0,0,0,0,0,0,0,0,0,0,0,0,0,0,0,0,0,0,0,0,0,0,0,0,0,0,0,0,0,0,-0.0303,-0.0302,0,-0.0213,-0.0212,-0.0211,-0.016,-0.016,-0.016,-0.016,-0.0015,-0.0011,-0.0008,0,0,0,0,0,0,0,0,0,0,0,0,0,-0.0306,-0.0306,-0.0303,-0.0302,-0.0301,-0.0213,-0.0212,-0.021,-0.016,-0.016,-0.016,-0.016,-0.0016,-0.0012,-0.0007,0,0,0,0,0,0,0,0,0,0,0,0,0,-0.0267,-0.0307,-0.0303,-0.0266,-0.0262,-0.0213,-0.0212,-0.021,-0.016,-0.016,-0.016,-0.016,-0.0018,-0.0012,-0.0007,0.0029,0,0,0.0011,0.0014,0,0,0,0,0,0,0,0,-0.027,-0.0267,-0.0273,-0.0269,-0.0264,-0.0199,-0.016,-0.0128,-0.016,-0.0197,-0.016,-0.016,-0.0073,-0.0063,-0.0044,0.0036,0.0042,0.0012,0.0015,0.0018,0.0019,0,0,0,0,0,0,0,-0.0273,-0.027,-0.0265,-0.0272,-0.0267,-0.0212,-0.0208,-0.0153,-0.0133,-0.0193,-0.019,-0.0183,-0.007,-0.0049,-0.004,0.0045,0.0011,0.0017,0.002,0.0022,0.015,0.015,0,0,0,0,0,0,-0.0295,-0.0273,-0.0268,-0.0263,-0.0269,-0.0213,-0.0208,-0.0219,-0.0135,-0.0123,-0.0183,-0.0181,-0.0059,-0.0047,-0.0034,0.0013,0.0017,0.0023,0.0026,0.015,0.015,0.015,0,0,0,0,0,0,-0.0295,-0.0296,-0.0272,-0.0266,-0.026,-0.0214,-0.0226,-0.0217,-0.0193,-0.0128,-0.0115,-0.0169,-0.0059,-0.0043,0.0009,0.0019,0.0026,0.0031,0.015,0.015,0.015,0.0108,0,0,0,0,0,0,-0.0296,-0.0297,-0.0304,-0.0269,-0.0261,-0.0242,-0.0226,-0.0215,-0.019,-0.0186,-0.0111,-0.0098,-0.0058,-0.0,0.0015,0.0027,0.0035,0.015,0.015,0.015,0.011,0.0107,0.0104,0,0,0,0,0,-0.0297,-0.0313,-0.0306,-0.0304,-0.0276,-0.0242,-0.0233,-0.0198,-0.019,-0.0177,-0.0134,-0.0101,0.0009,0.0005,0.0022,0.0036,0.0151,0.015,0.015,0.0111,0.0107,0.0104,0,0,0,0,0,0,-0.0318,-0.0308,-0.0299,-0.0312,-0.0279,-0.0235,-0.0221,-0.0199,-0.0155,-0.0151,-0.0094,-0.0078,-0.0035,0.0006,-0.0001,0.007,0.0083,0.0086,0.0047,0.0045,0.0042,0.0059,0.004,0,0,0,0,0,-0.0328,-0.0341,-0.031,-0.0319,-0.0305,-0.0262,-0.0243,-0.0219,-0.018,-0.0161,-0.0111,-0.0062,-0.0022,0.0014,0.0054,0.0106,0.0149,0.0123,0.012,0.0118,0.0142,0.0211,0.0218,0.015,0.015,0.015,0,0,-0.034,-0.0336,-0.0343,-0.0324,-0.0297,-0.027,-0.025,-0.0225,-0.0199,-0.015,-0.0103,-0.0072,-0.0015,0.003,0.0054,0.007,0.0151,0.0117,0.0115,0.0141,0.0212,0.0219,0.0225,0.0149,0.0149,0.0149,0,0,-0.0362,-0.0365,-0.0372,-0.0344,-0.0308,-0.028,-0.0275,-0.0227,-0.0203,-0.0159,-0.0126,-0.008,-0.0016,0.0035,0.0066,0.0078,0.0124,0.0076,0.0095,0.0161,0.0168,0.0174,0.0203,0.0213,0.0087,0.0087,0.0087,0,-0.0373,-0.0379,-0.0364,-0.0349,-0.0324,-0.0287,-0.0265,-0.0235,-0.0176,-0.0146,-0.0151,-0.0048,-0.0006,0.0068,0.0063,0.0077,0.0103,0.0101,0.0159,0.0167,0.0174,0.0203,0.0214,0.0085,0.0085,0.0086,0.0086,0,-0.0397,-0.038,-0.0379,-0.0352,-0.0322,-0.0301,-0.0255,-0.0224,-0.0198,-0.0158,-0.0094,-0.004,0.0028,0.0037,0.0055,0.0127,0.0122,0.0135,0.0168,0.0179,0.0207,0.022,0.0082,0.0083,0.0084,0.0084,0,0,-0.0459,-0.0408,-0.04,-0.038,-0.032,-0.0305,-0.0256,-0.0198,-0.0182,-0.0113,-0.0073,0.0006,0.0036,0.0073,0.0105,0.0167,0.0221,0.017,0.0174,0.02,0.0338,0.0291,0.03,0.0239,0.0242,0.0244,0.0324,0,-0.0471,-0.0455,-0.0414,-0.0377,-0.0358,-0.0296,-0.0266,-0.0208,-0.0167,-0.0126,-0.0036,-0.0,0.0049,0.0058,0.0139,0.019,0.0258,0.0197,0.0325,0.0329,0.0288,0.0315,0.0308,0.0376,0.0337,0.0339,0.034,0,-0.0498,-0.0479,-0.0457,-0.0395,-0.0384,-0.0358,-0.0305,-0.0267,-0.0184,-0.0158,-0.0067,-0.0021,0.009,0.0101,0.0271,0.0223,0.0289,0.0337,0.0341,0.0331,0.0307,0.0367,0.0401,0.0362,0.036,0.0359,0.0357,0,-0.0564,-0.0502,-0.0493,-0.0471,-0.0406,-0.0381,-0.0343,-0.0273,-0.0251,-0.0175,-0.0162,-0.0021,0.0025,0.0158,0.027,0.0269,0.0426,0.0438,0.047,0.0466,0.0507,0.0501,0.0572,0.0572,0.0572,0.0571,0.0571,0,-0.0601,-0.0576,-0.0528,-0.0522,-0.0506,-0.0442,-0.0425,-0.0373,-0.0317,-0.0287,-0.0183,-0.0141,0.0041,0.0149,0.0265,0.04,0.0438,0.049,0.0498,0.0484,0.0476,0.0509,0.0501,0.0574,0.0574,0.0573,0.0573,0,-0.0647,-0.0626,-0.0596,-0.0545,-0.0536,-0.0519,-0.047,-0.0466,-0.0411,-0.0369,-0.0347,-0.0218,-0.0084,0.0078,0.0267,0.0373,0.0507,0.0543,0.049,0.0491,0.0503,0.0492,0.0606,0.0605,0.0604,0.0604,0.0603,0,-0.0668,-0.0667,-0.0624,-0.0628,-0.0597,-0.0577,-0.0574,-0.0514,-0.0499,-0.0409,-0.039,-0.0271,-0.0167,0.0073,0.0259,0.0451,0.0477,0.0547,0.0563,0.0518,0.0515,0.0504,0.0493,0.0591,0.0591,0.0591,0.059,0,-0.0681,-0.0667,-0.065,-0.067,-0.067,-0.0661,-0.0638,-0.0642,-0.0569,-0.0523,-0.0433,-0.035,-0.014,0.0067,0.0277,0.0397,0.0515,0.0542,0.0551,0.0562,0.0505,0.0501,0.0492,0.0587,0.0587,0.0587,0.0588,0.0588,-0.0682,-0.0675,-0.0683,-0.0697,-0.0714,-0.0731,-0.0728,-0.0698,-0.0662,-0.0566,-0.0471,-0.0324,-0.0135,0.0159,0.0319,0.0469,0.0484,0.0562,0.0564,0.0566,0.0528,0.0472,0.0538,0.0538,0.0538,0.0538,0.0538,0,-0.0685,-0.0694,-0.0715,-0.0738,-0.0777,-0.0772,-0.077,-0.0751,-0.0702,-0.0583,-0.047,-0.0244,-0.0032,0.0145,0.038,0.052,0.054,0.0541,0.0559,0.0562,0.0564,0.0527,0.0537,0.0537,0.0538,0.0538,0,0,-0.0693,-0.071,-0.0726,-0.0797,-0.0823,-0.0852,-0.085,-0.079,-0.0707,-0.057,-0.044,-0.0275,-0.0041,0.0126,0.0306,0.0425,0.0453,0.0433,0.0424,0.0427,0.0427,0.0571,0.0514,0,0,0,0,0]}],[{"header":{"parameterUnit":"m.s-1","parameterCategory":2,"la1":30.2991,"la2":30.254,"lo1":-89.0895,"lo2":-89.0444,"dx":0.0017,"dy":0.0017,"nx":28,"ny":28,"refTime":"2022-11-07T03:00:00:Z","depth":"4","parameterNumber":2,"parameterNumberName":"U-component_of_CURRENTS"},"data":[0,0,0,0,0,0,0,0,0,0,0,0,0,0,0,0,0,0,0,0,0,0,0,0,0,0,0,0,0,0,0,0,0,0,0,0,0,0,0,0,0,0,0,0,0,0,0,0,0,0,0,0,0,0,0,0,0,0,-0.0736,-0.0737,0,-0.0782,-0.0783,-0.0783,-0.081,-0.081,-0.081,-0.081,-0.0864,-0.0865,-0.0867,0,0,0,0,0,0,0,0,0,0,0,0,0,-0.0671,-0.0673,-0.0736,-0.0737,-0.0737,-0.0782,-0.0783,-0.0783,-0.081,-0.081,-0.081,-0.081,-0.0864,-0.0865,-0.0867,0,0,0,0,0,0,0,0,0,0,0,0,0,-0.0707,-0.0673,-0.0736,-0.0755,-0.0757,-0.0782,-0.0783,-0.0783,-0.081,-0.081,-0.081,-0.081,-0.0863,-0.0865,-0.0867,-0.0879,0,0,-0.0874,-0.0874,0,0,0,0,0,0,0,0,-0.0705,-0.071,-0.0752,-0.0754,-0.0756,-0.079,-0.0779,-0.0816,-0.081,-0.0791,-0.081,-0.081,-0.0839,-0.0843,-0.0853,-0.0882,-0.0884,-0.0874,-0.0875,-0.0876,-0.0876,0,0,0,0,0,0,0,-0.0703,-0.0708,-0.0755,-0.0753,-0.0755,-0.0761,-0.0767,-0.0786,-0.0815,-0.0793,-0.0794,-0.0798,-0.0841,-0.0851,-0.0854,-0.0885,-0.0874,-0.0876,-0.0877,-0.0878,-0.0984,-0.0985,0,0,0,0,0,0,-0.0696,-0.0706,-0.0754,-0.0757,-0.073,-0.0762,-0.0768,-0.078,-0.0815,-0.082,-0.0798,-0.0799,-0.0847,-0.0852,-0.0856,-0.0912,-0.0876,-0.0878,-0.0879,-0.0982,-0.0984,-0.0986,0,0,0,0,0,0,-0.0694,-0.07,-0.0752,-0.0731,-0.0738,-0.0763,-0.0776,-0.078,-0.0806,-0.0819,-0.0824,-0.082,-0.0847,-0.0853,-0.0896,-0.0913,-0.0879,-0.0881,-0.098,-0.0983,-0.0985,-0.0999,0,0,0,0,0,0,-0.0692,-0.0699,-0.0711,-0.0731,-0.0739,-0.0777,-0.0776,-0.0781,-0.0807,-0.0809,-0.0839,-0.0844,-0.0848,-0.0893,-0.0898,-0.0915,-0.0882,-0.0979,-0.0982,-0.0984,-0.0997,-0.1002,-0.1006,0,0,0,0,0,-0.069,-0.0704,-0.0711,-0.0717,-0.0752,-0.0778,-0.0783,-0.0801,-0.0808,-0.0824,-0.085,-0.0843,-0.0915,-0.0896,-0.0901,-0.092,-0.0977,-0.0981,-0.0984,-0.0995,-0.1001,-0.1006,0,0,0,0,0,0,-0.0683,-0.0708,-0.0717,-0.0738,-0.0761,-0.0782,-0.0798,-0.0811,-0.0844,-0.0849,-0.0864,-0.087,-0.092,-0.0921,-0.09,-0.0962,-0.0945,-0.095,-0.0951,-0.0957,-0.0961,-0.0944,-0.0884,0,0,0,0,0,-0.0686,-0.0704,-0.0727,-0.0746,-0.0758,-0.0782,-0.0797,-0.0809,-0.0836,-0.0851,-0.0877,-0.0905,-0.0936,-0.0947,-0.0979,-0.1005,-0.1003,-0.1023,-0.1028,-0.1031,-0.1024,-0.1044,-0.1049,-0.0997,-0.0997,-0.0997,0,0,-0.0687,-0.0704,-0.0714,-0.0746,-0.0765,-0.0786,-0.0792,-0.0818,-0.0838,-0.0851,-0.0898,-0.093,-0.0953,-0.0992,-0.1011,-0.0992,-0.1047,-0.1036,-0.1038,-0.1028,-0.1048,-0.1053,-0.1057,-0.1,-0.0999,-0.0999,0,0,-0.0695,-0.0716,-0.0733,-0.0753,-0.0782,-0.0797,-0.0808,-0.0843,-0.0863,-0.0906,-0.0928,-0.0962,-0.1013,-0.1024,-0.1036,-0.1083,-0.1082,-0.1108,-0.1102,-0.1123,-0.1126,-0.1129,-0.1134,-0.1138,-0.1096,-0.1096,-0.1096,0,-0.0695,-0.0722,-0.0742,-0.0763,-0.0782,-0.0804,-0.0827,-0.0849,-0.0895,-0.0919,-0.0924,-0.1011,-0.102,-0.1062,-0.1074,-0.1089,-0.1105,-0.1075,-0.1126,-0.1129,-0.1132,-0.1136,-0.114,-0.1097,-0.1097,-0.1097,-0.1097,0,-0.0709,-0.0739,-0.0751,-0.0786,-0.0809,-0.0833,-0.0861,-0.0894,-0.0922,-0.0946,-0.101,-0.1032,-0.1077,-0.1089,-0.109,-0.1128,-0.1134,-0.1138,-0.1104,-0.1137,-0.114,-0.1144,-0.1098,-0.1098,-0.1098,-0.1097,0,0,-0.0687,-0.075,-0.0755,-0.0785,-0.0824,-0.0847,-0.0882,-0.0925,-0.0961,-0.0999,-0.1048,-0.1083,-0.1103,-0.1118,-0.1133,-0.1136,-0.1159,-0.1144,-0.1144,-0.1134,-0.1208,-0.1142,-0.1139,-0.1184,-0.1185,-0.1185,-0.1201,0,-0.0694,-0.0744,-0.077,-0.082,-0.0851,-0.0884,-0.092,-0.096,-0.0998,-0.1052,-0.107,-0.1125,-0.1112,-0.1141,-0.1144,-0.1172,-0.117,-0.1154,-0.1189,-0.1189,-0.1115,-0.1141,-0.1188,-0.1203,-0.1204,-0.1204,-0.1205,0,-0.069,-0.0734,-0.0785,-0.0858,-0.0874,-0.0903,-0.0971,-0.1005,-0.1067,-0.1099,-0.1141,-0.1171,-0.1193,-0.1177,-0.1205,-0.1206,-0.1202,-0.1205,-0.1206,-0.1137,-0.1129,-0.1165,-0.1211,-0.121,-0.121,-0.1209,-0.1209,0,-0.0669,-0.0739,-0.0786,-0.0809,-0.089,-0.0921,-0.0961,-0.1023,-0.1064,-0.113,-0.1168,-0.121,-0.1234,-0.1245,-0.1235,-0.1237,-0.1259,-0.1261,-0.1193,-0.1189,-0.1235,-0.1232,-0.1268,-0.1268,-0.1268,-0.1268,-0.1268,0,-0.0658,-0.07,-0.0785,-0.0816,-0.0877,-0.0925,-0.0991,-0.1035,-0.1102,-0.1149,-0.1191,-0.1224,-0.1255,-0.127,-0.1258,-0.1229,-0.1275,-0.119,-0.1189,-0.1243,-0.124,-0.1237,-0.1234,-0.1269,-0.1269,-0.1269,-0.1268,0,-0.0627,-0.068,-0.0749,-0.0844,-0.0872,-0.0915,-0.1003,-0.1049,-0.111,-0.1169,-0.1191,-0.1247,-0.1263,-0.1274,-0.1287,-0.1247,-0.1232,-0.1207,-0.1255,-0.1257,-0.1145,-0.1142,-0.1144,-0.1142,-0.114,-0.1138,-0.1137,0,-0.0614,-0.0648,-0.0765,-0.0805,-0.085,-0.092,-0.0969,-0.1044,-0.1083,-0.117,-0.1188,-0.1233,-0.1258,-0.1218,-0.1235,-0.121,-0.1191,-0.1176,-0.116,-0.1134,-0.1133,-0.1133,-0.1133,-0.1134,-0.1133,-0.1133,-0.1133,0,-0.0602,-0.0651,-0.0716,-0.0795,-0.0853,-0.0919,-0.0983,-0.1004,-0.1082,-0.1146,-0.1163,-0.1169,-0.1182,-0.1178,-0.116,-0.1141,-0.1187,-0.1156,-0.116,-0.1145,-0.1122,-0.1123,-0.1125,-0.1126,-0.1127,-0.1128,-0.1128,0,-0.0594,-0.0636,-0.072,-0.078,-0.0848,-0.0889,-0.0934,-0.0973,-0.1016,-0.1095,-0.1096,-0.1134,-0.1177,-0.1142,-0.1128,-0.1103,-0.109,-0.1057,-0.1066,-0.1073,-0.104,-0.1,-0.0963,0,0,0,0,0,-0.0587,-0.0631,-0.0693,-0.0756,-0.0815,-0.0846,-0.0932,-0.0971,-0.1035,-0.1025,-0.1057,-0.1063,-0.1052,-0.1069,-0.1027,-0.1095,-0.1092,-0.1043,-0.1059,-0.109,-0.1098,-0.1064,0,0,0,0,0,0,-0.0578,-0.0648,-0.0684,-0.0713,-0.0734,-0.079,-0.0838,-0.0887,-0.0884,-0.0949,-0.0945,-0.0996,-0.0994,-0.1049,-0.0999,-0.1004,-0.0996,-0.1066,-0.1063,-0.1086,-0.1093,-0.1099,-0.1067,0,0,0,0,0]},{"header":{"parameterUnit":"m.s-1","parameterCategory":2,"la1":30.2991,"la2":30.254,"lo1":-89.0895,"lo2":-89.0444,"dx":0.0017,"dy":0.0017,"nx":28,"ny":28,"refTime":"2022-11-07T03:00:00:Z","depth":"4","parameterNumber":3,"parameterNumberName":"V-component_of_CURRENTS"},"data":[0,0,0,0,0,0,0,0,0,0,0,0,0,0,0,0,0,0,0,0,0,0,0,0,0,0,0,0,0,0,0,0,0,0,0,0,0,0,0,0,0,0,0,0,0,0,0,0,0,0,0,0,0,0,0,0,0,0,-0.0281,-0.0281,0,-0.0262,-0.0262,-0.0262,-0.0248,-0.0248,-0.0247,-0.0247,-0.021,-0.0209,-0.0208,0,0,0,0,0,0,0,0,0,0,0,0,0,-0.0281,-0.0281,-0.0281,-0.0281,-0.0281,-0.0262,-0.0262,-0.0262,-0.0248,-0.0248,-0.0247,-0.0247,-0.021,-0.0209,-0.0208,0,0,0,0,0,0,0,0,0,0,0,0,0,-0.0273,-0.0281,-0.0281,-0.0272,-0.0271,-0.0262,-0.0262,-0.0262,-0.0248,-0.0248,-0.0247,-0.0247,-0.0211,-0.0209,-0.0208,-0.0203,0,0,-0.0204,-0.0203,0,0,0,0,0,0,0,0,-0.0274,-0.0273,-0.0273,-0.0272,-0.0271,-0.0257,-0.0248,-0.0241,-0.0248,-0.0256,-0.0247,-0.0247,-0.0224,-0.0222,-0.0219,-0.0201,-0.02,-0.0204,-0.0203,-0.0202,-0.0202,0,0,0,0,0,0,0,-0.0274,-0.0274,-0.0274,-0.0273,-0.0272,-0.026,-0.0259,-0.0247,-0.0241,-0.0255,-0.0254,-0.0253,-0.0224,-0.022,-0.0218,-0.0199,-0.0204,-0.0203,-0.0202,-0.0201,-0.0165,-0.0165,0,0,0,0,0,0,-0.0279,-0.0275,-0.0274,-0.0273,-0.0272,-0.026,-0.0259,-0.0262,-0.0241,-0.0238,-0.0253,-0.0252,-0.0222,-0.0219,-0.0216,-0.0208,-0.0202,-0.0201,-0.02,-0.0165,-0.0165,-0.0165,0,0,0,0,0,0,-0.0279,-0.0279,-0.0275,-0.0273,-0.0272,-0.0261,-0.0264,-0.0262,-0.0261,-0.024,-0.0236,-0.0255,-0.0222,-0.0218,-0.0205,-0.0206,-0.0201,-0.0199,-0.0166,-0.0165,-0.0165,-0.0191,0,0,0,0,0,0,-0.0279,-0.0279,-0.0284,-0.0274,-0.0272,-0.0275,-0.0264,-0.0261,-0.026,-0.0259,-0.024,-0.0237,-0.0222,-0.0207,-0.0204,-0.0204,-0.0198,-0.0166,-0.0165,-0.0165,-0.019,-0.0192,-0.0193,0,0,0,0,0,-0.0279,-0.029,-0.0284,-0.0284,-0.0279,-0.0276,-0.0274,-0.0265,-0.0261,-0.0263,-0.0247,-0.0237,-0.0203,-0.0206,-0.0202,-0.0202,-0.0166,-0.0166,-0.0165,-0.019,-0.0191,-0.0193,0,0,0,0,0,0,-0.0291,-0.0289,-0.0283,-0.0292,-0.0285,-0.0273,-0.0276,-0.0269,-0.0259,-0.0258,-0.0237,-0.0232,-0.0219,-0.0207,-0.0211,-0.019,-0.0182,-0.0181,-0.0202,-0.0204,-0.0205,-0.0207,-0.0197,0,0,0,0,0,-0.0296,-0.0305,-0.0295,-0.0302,-0.0301,-0.0289,-0.0287,-0.0281,-0.027,-0.0266,-0.0251,-0.0233,-0.0215,-0.0207,-0.0191,-0.0182,-0.0151,-0.0178,-0.0179,-0.018,-0.0179,-0.0124,-0.012,-0.0164,-0.0164,-0.0164,0,0,-0.0304,-0.0302,-0.0308,-0.0305,-0.03,-0.0301,-0.0288,-0.0289,-0.0289,-0.0263,-0.0259,-0.0238,-0.0213,-0.02,-0.0194,-0.019,-0.0153,-0.018,-0.0181,-0.0179,-0.0123,-0.0119,-0.0115,-0.0164,-0.0164,-0.0164,0,0,-0.0323,-0.0322,-0.0335,-0.033,-0.0325,-0.0316,-0.0318,-0.0308,-0.0302,-0.0295,-0.0272,-0.025,-0.0233,-0.0208,-0.0195,-0.0193,-0.0161,-0.0191,-0.02,-0.0147,-0.0142,-0.0138,-0.0099,-0.0091,-0.0192,-0.0192,-0.0192,0,-0.0332,-0.0343,-0.0337,-0.0343,-0.0341,-0.0324,-0.0331,-0.0324,-0.031,-0.03,-0.0299,-0.0249,-0.0235,-0.0201,-0.0204,-0.0196,-0.0163,-0.0198,-0.0148,-0.0143,-0.0138,-0.0099,-0.009,-0.0193,-0.0193,-0.0193,-0.0193,0,-0.0358,-0.0363,-0.037,-0.0372,-0.0369,-0.0373,-0.036,-0.0356,-0.0346,-0.0329,-0.0299,-0.0269,-0.0236,-0.023,-0.0221,-0.018,-0.0167,-0.0155,-0.0145,-0.0135,-0.0095,-0.0085,-0.0195,-0.0195,-0.0194,-0.0194,0,0,-0.0383,-0.0388,-0.039,-0.039,-0.0383,-0.0383,-0.0383,-0.0369,-0.0359,-0.0338,-0.0314,-0.0283,-0.0256,-0.0239,-0.0213,-0.0174,-0.0122,-0.0157,-0.0153,-0.012,-0.0009,-0.0015,-0.0005,-0.0097,-0.0096,-0.0094,0.0004,0,-0.0402,-0.0419,-0.0417,-0.0426,-0.0429,-0.0413,-0.0411,-0.0395,-0.0375,-0.0349,-0.0305,-0.0274,-0.0262,-0.0242,-0.02,-0.0142,-0.0096,-0.0151,-0.0021,-0.0018,-0.0025,0.0006,-0.0089,0.0012,0.0014,0.0016,0.0017,0,-0.0427,-0.0432,-0.0449,-0.0442,-0.0443,-0.0447,-0.043,-0.0425,-0.0384,-0.0365,-0.0319,-0.0282,-0.0225,-0.0215,-0.0101,-0.0135,-0.0075,-0.0028,-0.0023,-0.0012,-0.0006,0.0003,0.0035,0.0034,0.0032,0.0031,0.003,0,-0.0442,-0.0451,-0.0464,-0.0464,-0.0458,-0.0462,-0.0457,-0.0429,-0.0418,-0.0368,-0.0347,-0.027,-0.023,-0.0144,-0.0061,-0.0073,0.0069,0.0068,0.0124,0.0124,0.011,0.0105,0.0162,0.0162,0.0162,0.0162,0.0161,0,-0.0455,-0.0465,-0.0474,-0.0479,-0.0487,-0.0478,-0.0476,-0.046,-0.0428,-0.0401,-0.0353,-0.031,-0.0209,-0.0123,-0.0047,0.0067,0.0087,0.0132,0.0155,0.0095,0.0087,0.0117,0.011,0.0165,0.0164,0.0164,0.0163,0,-0.0464,-0.0473,-0.0486,-0.0491,-0.0496,-0.0501,-0.0498,-0.0492,-0.0461,-0.0424,-0.0408,-0.0327,-0.0216,-0.0113,0.0032,0.0084,0.0193,0.0232,0.0157,0.0172,0.0208,0.0199,0.0305,0.0305,0.0306,0.0307,0.0307,0,-0.0469,-0.0478,-0.0499,-0.0512,-0.0517,-0.0525,-0.0532,-0.0511,-0.0497,-0.0428,-0.0406,-0.0303,-0.0237,-0.0035,0.0061,0.0217,0.0233,0.0286,0.0248,0.0214,0.0226,0.0216,0.0206,0.0308,0.0308,0.0308,0.0308,0,-0.047,-0.0483,-0.0493,-0.0527,-0.0545,-0.0555,-0.0557,-0.0544,-0.0505,-0.048,-0.0379,-0.0277,-0.0154,-0.0023,0.0098,0.0206,0.0247,0.0293,0.0292,0.0256,0.0219,0.0228,0.0218,0.0311,0.031,0.031,0.031,0,-0.0471,-0.0481,-0.0509,-0.0535,-0.0565,-0.0577,-0.057,-0.0536,-0.0512,-0.0426,-0.0389,-0.0259,-0.0179,-0.0027,0.0085,0.0187,0.0205,0.0228,0.0231,0.023,0.0167,0.0106,0.0195,0,0,0,0,0,-0.0467,-0.0486,-0.0516,-0.0548,-0.0582,-0.0601,-0.0588,-0.0572,-0.0526,-0.0452,-0.0415,-0.0294,-0.0118,-0.0047,0.0057,0.0075,0.0203,0.0196,0.0226,0.0323,0.032,0.0258,0,0,0,0,0,0,-0.0463,-0.0492,-0.0515,-0.0563,-0.0592,-0.0623,-0.0615,-0.058,-0.0525,-0.0462,-0.0366,-0.0292,-0.0125,-0.0186,0.0047,0.0078,0.0107,0.0283,0.0285,0.0324,0.0322,0.032,0.0255,0,0,0,0,0]}]]